Regional Weather Roundup
Issued by NWS

Home | Current Version | Previous Version | Text Only | Print | Product List | Glossary On
Versions: 1 2 3 4 5 6 7 8 9 10 11 12 13 14 15 16 17 18 19 20 21 22 23 24 25 26 27 28 29 30 31 32 33 34 35 36 37 38 39 40 41 42 43 44 45 46 47 48 49 50
000
ASUS43 KLMK 271910
RWRKY
KENTUCKY REGIONAL WEATHER ROUNDUP
NATIONAL WEATHER SERVICE LOUISVILLE KY
300 PM EDT MON APR 27 2015

NOTE "FAIR" INDICATES FEW OR NO CLOUDS BELOW 12,000 FEET
WITH NO SIGNIFICANT WEATHER AND/OR OBSTRUCTIONS TO VISIBILITY.

KYZ001>023-026-027-061>063-070>075-272000-
WESTERN AND SOUTH CENTRAL KENTUCKY

CITY           SKY/WX    TMP DP  RH WIND       PRES   REMARKS
PADUCAH        SUNNY     65  38  36 N18       30.01S
HENDERSON      MOSUNNY   63  37  39 NW9G17    30.01F
OWENSBORO      MOSUNNY   62  36  38 N8G17     30.01F
HOPKINSVILLE   PTSUNNY   62  38  42 VRB2      29.99F
BOWLING GREEN  MOSUNNY   65  36  34 N8        29.98F
GLASGOW        SUNNY     64  35  35 NW6       29.97S
$$

KYZ024-025-028>034-038-045-046-053-272000-
NORTH CENTRAL KENTUCKY

CITY           SKY/WX    TMP DP  RH WIND       PRES   REMARKS
LOUISVILLE/SDF PTSUNNY   65  35  33 NW8G17    29.97F
LOUISVILLE/LOU SUNNY     64  34  32 N9G18     29.97F
FORT KNOX      SUNNY     62  35  36 NW9       29.96S
$$

KYZ035>037-039>044-047>052-055>060-089>105-272000-
NORTHEAST KENTUCKY

CITY           SKY/WX    TMP DP  RH WIND       PRES   REMARKS
LEXINGTON      MOSUNNY   62  37  39 VRB5      29.95F
COVINGTON      MOSUNNY   61  35  37 N12G21    29.96F
FRANKFORT      MOSUNNY   63  35  35 NW9       29.95F
$$

KYZ054-064>069-076>088-106>120-272000-
SOUTHEAST KENTUCKY

CITY           SKY/WX    TMP DP  RH WIND       PRES   REMARKS
JACKSON        PTSUNNY   58  30  34 NW5       29.94F
LONDON         MOSUNNY   63  29  27 NW9       29.94F
SOMERSET       MOSUNNY   61  34  36 CALM      29.97F
MIDDLESBORO    MOSUNNY   62  33  33 NW5       29.94S
MONTICELLO     PTCLDY    64  36  35 VRB7      29.99S
$$




USA.gov is the U.S. government's official web portal to all federal, state and local government web resources and services.